STARLINK-32886, 62807

Orbit data source: Space-Track

STARLINK-32886, 62807 is a payload satellite owned by SpaceX/Seattle (US) in LEO that was launched on Fri, 24 Jan 2025 UTC via an FALCON 9 launch vehicle from the Air Force Western Test Range (AFWTR). Payload-class satellites include a variety of spacecraft equipped with specific instruments for various scientific and technological missions. These include communications satellites like Starlink; space stations such as the ISS; scientific satellites like the Hubble; Earth observation satellites from companies like Planet Labs, Umbra, and HawkEye 360; GPS; miniature CubeSats for education and research; and military/defense satellites.

Loading next visibility...
Identifier
62807, 2025-018B
Orbit
LEO
Last TLE update
11 hours ago
Origin
Manufacturer
SpaceX/Seattle
Mission
Operational Commercial Communications
Bus & Motor
STARLINK V2M, Unknown motor
Mass
730 kg wet, ~700 kg dry
Launch date (UTC)
2025-01-24 (5 months ago)
Launch vehicle
FALCON 9
Launch site
Air Force Western Test Range (AFWTR)
Object type
Payload
Rocket body
Debris
Shape & HBR
Box + 2 Pan, 29 m
Radar Cross Section
33.884 m², Large (>1 m²)

Expand to show TLE details & history

TLE from 11 hours ago
0 STARLINK-32886
1 62807U 25018B   25181.92668933  .00010608  00000-0  36975-3 0  9990
2 62807  53.1603  38.9262 0001185  78.6253 281.4881 15.30201272 24639
Epoch: 2025-06-30T22:14Z
TLE epoch observation values (Epoch: 2025-06-30T22:14:25.958Z)
Latitude
0.00001°
Longitude
146.08857°
Altitude
475.949 km
Speed
7.629 km/s
True Right ascension
02h 35m 42s
True Declination
0° 00' 00"
Sunlit
Object was in daylight at epoch
Visualization orbit readout
Latitude
51.79829°
Longitude
-144.8903°
Altitude
480.6 km
Speed
7.632 km/s
Apparent Right ascension
08h 16m 01s
Apparent Declination
8° 20' 23"
Sunlit
Object is in daylight
Visualization observer readout
Local Sidereal Time
21:11:34
Azimuth
18.076° NNE
Elevation
-40.063°
Doppler factor
1
Orbital elements
Apogee altitude
476.28 km
Perigee altitude
474.656 km
Semi-major axis
6,853.605 km
Eccentricity
0.00012
Inclination
53.1603°
RAAN
38.9262°
Arg. of periapsis
78.6253°
True anomaly
Unknown
Mean anomaly
281.4881°
Eccentric anomaly
Unknown
Mean motion
3.82529 °/min
Orbital period
94.11 mins
BSTAR
0.00036975
Loading maneuver chart data...
Loading SW <> Apogee altitude chart data...
Loading historical data...
Loading historical data...
Loading historical data...
Loading historical data...
Loading historical data...
Loading historical data...
Loading historical data...

STARLINK-32886 Visibility forecast

Observer location: undefined°, undefined°

Span
Click to sort rows by Start time (UTC) header in descending order
Start Az.
Max El. time (UTC)
Max El. Az.
Max El.
End time (UTC)
End Az.
6 mins2025-07-01 17:14:16.437Z229.708° WSW2025-07-01 17:17:16.437Z44.921° NE43.868°2025-07-01 17:20:16.437Z49.735° ENE
4 mins2025-07-01 22:11:16.437Z339.677° N2025-07-01 22:13:16.437Z13.52° NNE16.059°2025-07-01 22:15:16.437Z51.941° ENE
5 mins2025-07-01 23:50:16.437Z317.509° NNW2025-07-01 23:52:16.437Z81.671° E43.434°2025-07-01 23:55:16.437Z124.973° SE
|